Home > Weather > Bristol > Past weeks

Flag for U.S.A. Weather for the Past 2 Weeks in Bristol, Tennessee, U.S.A.

Now
16 °F

More clouds than sun.


Feels Like: 5 °F
Forecast: 8 / 29 °F
Wind: 9 mph from East

Location: Abingdon-Southwest Abingdon

Current Time: Feb 14, 2016 at 8:44:24 AM

Latest Report: Feb 14, 2016 at 8:15 AM


Visibility: 10 mi

Pressure: 30.33 "Hg (28.40 "Hg at 510m altitude)

Humidity: 56%

Dew point: 3 °F

Location of BristolLocation

Historic Weather in Bristol — Graph

°F

Bristol Temperature Yesterday

Maximum temperature yesterday: 28 °F (at 12:15 AM)
Minimum temperature yesterday: 13 °F (at 11:55 PM)
Average temperature yesterday: 21 °F

High & Low Weather Summary for the Past Weeks

 TemperatureHumidityPressure
High67 °F (Feb 2, 2:15 PM)97% (Feb 1, 6:55 PM)30.39 "Hg (Feb 1, 6:55 PM)
Low10 °F (Feb 14, 2:15 AM)14% (Jan 30, 2:55 PM)29.60 "Hg (Feb 8, 2:55 PM)
Average36 °F63%30.05 "Hg
* Reported Jan 30 7:15 AM — Feb 14 7:15 AM, Bristol, Weather by CustomWeather, © 2016

Note: Actual official high and low records may vary slightly from our data, if they occured in-between our weather recording intervals... More about our weather records

Advertising

Bristol Weather History for the Previous 24 Hours

 ConditionsComfort  
Time TempWeatherWind HumidityBarometerVisibility
7:15 AM
Sun, Feb 14
15 °FPassing clouds.6 mph54%30.34 "Hg10 mi
6:55 AM15 °FOvercast.No wind52%30.35 "Hg10 mi
6:35 AM15 °FOvercast.3 mph52%30.35 "Hg10 mi
6:15 AM15 °FOvercast.No wind53%30.34 "Hg10 mi
5:55 AM15 °FOvercast.7 mph53%30.33 "Hg10 mi
5:35 AM15 °FPassing clouds.7 mph56%30.33 "Hg10 mi
5:15 AM15 °FPassing clouds.6 mph54%30.34 "Hg10 mi
4:55 AM14 °FClear.5 mph53%30.35 "Hg10 mi
4:15 AM14 °FClear.6 mph60%30.33 "Hg10 mi
3:55 AM13 °FClear.5 mph61%30.33 "Hg10 mi
3:35 AM12 °FClear.No wind62%30.34 "Hg10 mi
3:15 AM12 °FClear.3 mph64%30.34 "Hg10 mi
2:40 AM10 °FClear.No wind66%30.33 "Hg10 mi
2:15 AM10 °FClear.No wind65%30.33 "Hg10 mi
1:55 AM11 °FClear.No wind61%30.33 "Hg10 mi
1:35 AM11 °FClear.No wind62%30.33 "Hg10 mi
1:15 AM11 °FClear.No wind59%30.32 "Hg10 mi
12:55 AM12 °FClear.No wind56%30.32 "Hg10 mi
12:35 AM12 °FClear.No wind56%30.34 "Hg10 mi
12:15 AM13 °FClear.No wind54%30.34 "Hg10 mi
11:55 PM
Sat, Feb 13
13 °FClear.No wind56%30.34 "Hg10 mi
11:15 PM14 °FClear.No wind52%30.35 "Hg10 mi
10:55 PM14 °FClear.No wind51%30.35 "Hg10 mi
10:15 PM16 °FClear.No wind47%30.35 "Hg10 mi
9:55 PM17 °FClear.6 mph46%30.35 "Hg10 mi
9:15 PM17 °FClear.No wind45%30.37 "Hg10 mi
8:35 PM18 °FClear.5 mph44%30.37 "Hg10 mi
8:15 PM18 °FClear.5 mph44%30.37 "Hg10 mi
7:55 PM18 °FClear.7 mph44%30.37 "Hg10 mi
7:15 PM19 °FClear.5 mph42%30.36 "Hg10 mi
6:55 PM20 °FClear.5 mph41%30.35 "Hg10 mi
6:20 PM20 °FClear.5 mph38%30.34 "Hg10 mi
5:55 PM22 °FSunny.8 mph35%30.33 "Hg10 mi
5:35 PM22 °FSunny.7 mph35%30.32 "Hg10 mi
5:15 PM22 °FSunny.5 mph35%30.32 "Hg10 mi
4:55 PM23 °FSunny.10 mph34%30.32 "Hg10 mi
4:35 PM23 °FSunny.9 mph35%30.32 "Hg10 mi
3:55 PM23 °FSunny.10 mph35%30.30 "Hg10 mi
3:35 PM22 °FSunny.10 mph35%30.30 "Hg10 mi
3:15 PM22 °FSunny.9 mph37%30.30 "Hg10 mi
2:55 PM22 °FScattered clouds.8 mph39%30.30 "Hg10 mi
2:35 PM22 °FScattered clouds.7 mph39%30.30 "Hg10 mi
2:15 PM22 °FSunny.13 mph37%30.30 "Hg10 mi
1:55 PM22 °FSunny.13 mph36%30.30 "Hg10 mi
1:35 PM22 °FScattered clouds.10 mph37%30.30 "Hg10 mi
1:15 PM20 °FPartly sunny.8 mph37%30.31 "Hg10 mi
12:55 PM20 °FPartly sunny.15 mph37%30.32 "Hg10 mi
12:35 PM21 °FPartly sunny.13 mph37%30.32 "Hg10 mi
12:15 PM19 °FPartly sunny.12 mph40%30.33 "Hg10 mi
11:55 AM20 °FCloudy.12 mph42%30.33 "Hg10 mi
11:15 AM18 °FOvercast.8 mph53%30.33 "Hg10 mi
10:55 AM18 °FLight snow. Mostly cloudy.7 mph56%30.33 "Hg5 mi
10:35 AM18 °FLight snow. Mostly cloudy.10 mph56%30.32 "Hg7 mi
10:15 AM19 °FLight snow. Cloudy.7 mph50%30.32 "Hg10 mi
9:55 AM18 °FOvercast.13 mph52%30.31 "Hg10 mi
9:15 AM18 °FLight snow. Cloudy.9 mph62%30.30 "Hg5 mi
8:55 AM18 °FOvercast.10 mph59%30.29 "Hg10 mi
8:15 AM18 °FMostly cloudy.9 mph61%30.27 "Hg10 mi
Weather by CustomWeather, © 2016

See weather overviewHow to use our weather pages